Hourly Weather Godzislaw

Today, 15 January, Friday

Time Temperature Precipitation Wind Pressure Humidity
00:00 -3°C° 0 mm 2 mps 750 mmHg 94%
01:00 -2°C° 0 mm 1 mps 750 mmHg 96%
02:00 -2°C° 0.1 mm 1 mps 750 mmHg 96%
03:00 -2°C° 0.1 mm 1 mps 750 mmHg 96%
04:00 -2°C° 0.1 mm 1 mps 750 mmHg 96%
05:00 -4°C° 0.2 mm 2 mps 750 mmHg 95%
06:00 -4°C° 0.2 mm 2 mps 750 mmHg 93%
07:00 -4°C° 0 mm 2 mps 750 mmHg 93%
08:00 -4°C° 0.1 mm 3 mps 750 mmHg 90%
09:00 -4°C° 0.1 mm 3 mps 751 mmHg 88%
10:00 -4°C° 0.1 mm 4 mps 751 mmHg 85%
11:00 -4°C° 0.1 mm 4 mps 751 mmHg 84%
12:00 -3°C° 0.1 mm 4 mps 751 mmHg 82%
13:00 -4°C° 0 mm 5 mps 751 mmHg 82%
14:00 -4°C° 0.1 mm 4 mps 752 mmHg 84%
15:00 -4°C° 0.1 mm 4 mps 752 mmHg 86%
16:00 -5°C° 0.1 mm 3 mps 752 mmHg 88%
17:00 -5°C° 0.1 mm 3 mps 752 mmHg 89%
18:00 -5°C° 0.1 mm 3 mps 752 mmHg 91%
19:00 -6°C° 0.1 mm 3 mps 752 mmHg 92%
20:00 -6°C° 0.2 mm 3 mps 752 mmHg 93%
21:00 -6°C° 0.2 mm 3 mps 753 mmHg 93%
22:00 -5°C° 0.2 mm 3 mps 753 mmHg 93%
23:00 -6°C° 0.2 mm 3 mps 753 mmHg 92%

Tomorrow, 16 January, Saturday

Time Temperature Precipitation Wind Pressure Humidity
00:00 -6°C° 0.2 mm 3 mps 753 mmHg 92%
01:00 -6°C° 0.2 mm 3 mps 753 mmHg 91%
02:00 -6°C° 0.1 mm 3 mps 752 mmHg 90%
03:00 -7°C° 0.1 mm 3 mps 752 mmHg 89%
04:00 -7°C° 0.1 mm 3 mps 752 mmHg 88%
05:00 -7°C° 0 mm 3 mps 752 mmHg 88%
06:00 -7°C° 0 mm 3 mps 752 mmHg 88%
07:00 -7°C° 0 mm 3 mps 751 mmHg 87%
08:00 -7°C° 0 mm 3 mps 751 mmHg 85%
09:00 -7°C° 0 mm 4 mps 751 mmHg 83%
10:00 -5°C° 0 mm 4 mps 750 mmHg 82%
11:00 -6°C° 0 mm 5 mps 750 mmHg 83%
12:00 -5°C° 0 mm 5 mps 750 mmHg 85%
13:00 -5°C° 0 mm 5 mps 749 mmHg 87%
14:00 -5°C° 0.2 mm 5 mps 749 mmHg 89%
15:00 -5°C° 0.2 mm 5 mps 749 mmHg 91%
16:00 -5°C° 0.2 mm 5 mps 749 mmHg 94%
17:00 -4°C° 0.4 mm 4 mps 749 mmHg 94%
18:00 -4°C° 0.4 mm 3 mps 749 mmHg 94%
19:00 -4°C° 0.4 mm 2 mps 749 mmHg 94%
20:00 -5°C° 0 mm 2 mps 749 mmHg 94%
21:00 -6°C° 0 mm 2 mps 749 mmHg 94%
22:00 -7°C° 0 mm 1 mps 750 mmHg 94%
23:00 -7°C° 0 mm 1 mps 750 mmHg 94%

Day after tomorrow, 17 January, Sunday

Time Temperature Precipitation Wind Pressure Humidity
00:00 -8°C° 0 mm 1 mps 750 mmHg 93%
01:00 -8°C° 0 mm 1 mps 750 mmHg 93%
02:00 -9°C° 0 mm 1 mps 750 mmHg 94%
03:00 -10°C° 0 mm 2 mps 750 mmHg 94%
04:00 -12°C° 0 mm 2 mps 750 mmHg 95%
05:00 -13°C° 0 mm 2 mps 750 mmHg 94%
06:00 -13°C° 0 mm 2 mps 750 mmHg 94%
07:00 -14°C° 0 mm 2 mps 750 mmHg 94%
08:00 -13°C° 0 mm 2 mps 751 mmHg 92%
09:00 -13°C° 0 mm 2 mps 751 mmHg 89%
10:00 -12°C° 0 mm 2 mps 752 mmHg 87%
11:00 -12°C° 0 mm 2 mps 752 mmHg 85%
12:00 -10°C° 0 mm 2 mps 752 mmHg 82%
13:00 -9°C° 0 mm 2 mps 752 mmHg 79%
14:00 -10°C° 0 mm 2 mps 752 mmHg 82%
15:00 -12°C° 0 mm 2 mps 752 mmHg 85%
16:00 -13°C° 0 mm 2 mps 752 mmHg 88%
17:00 -13°C° 0 mm 2 mps 752 mmHg 88%
18:00 -14°C° 0 mm 2 mps 752 mmHg 88%
19:00 -15°C° 0 mm 2 mps 753 mmHg 89%
20:00 -15°C° 0 mm 2 mps 753 mmHg 88%
21:00 -15°C° 0 mm 2 mps 753 mmHg 87%
22:00 -15°C° 0 mm 2 mps 753 mmHg 87%
23:00 -15°C° 0 mm 2 mps 753 mmHg 87%

18 January, Monday

Time Temperature Precipitation Wind Pressure Humidity
00:00 -16°C° 0 mm 2 mps 753 mmHg 86%
01:00 -16°C° 0 mm 2 mps 753 mmHg 86%
02:00 -16°C° 0 mm 2 mps 753 mmHg 86%
03:00 -16°C° 0 mm 2 mps 752 mmHg 86%
04:00 -16°C° 0 mm 2 mps 752 mmHg 86%
05:00 -16°C° 0 mm 2 mps 752 mmHg 86%
06:00 -16°C° 0 mm 2 mps 752 mmHg 86%
07:00 -17°C° 0 mm 3 mps 752 mmHg 85%
08:00 -16°C° 0 mm 3 mps 752 mmHg 84%
09:00 -15°C° 0 mm 3 mps 752 mmHg 82%
10:00 -14°C° 0 mm 3 mps 752 mmHg 81%
11:00 -13°C° 0 mm 3 mps 751 mmHg 80%
12:00 -12°C° 0 mm 3 mps 751 mmHg 80%
13:00 -10°C° 0 mm 3 mps 751 mmHg 80%
14:00 -10°C° 0 mm 3 mps 751 mmHg 84%
15:00 -10°C° 0 mm 3 mps 750 mmHg 88%
16:00 -10°C° 0 mm 3 mps 750 mmHg 91%
17:00 -9°C° 0 mm 3 mps 750 mmHg 92%
18:00 -9°C° 0 mm 3 mps 750 mmHg 93%
19:00 -9°C° 0 mm 3 mps 750 mmHg 94%
20:00 -8°C° 0.3 mm 3 mps 750 mmHg 95%
21:00 -7°C° 0.3 mm 3 mps 750 mmHg 95%
22:00 -6°C° 0.3 mm 3 mps 749 mmHg 96%
23:00 -4°C° 0.3 mm 3 mps 749 mmHg 96%

19 January, Tuesday

Time Temperature Precipitation Wind Pressure Humidity
00:00 -2°C° 0.3 mm 3 mps 749 mmHg 97%
01:00 -1°C° 0.3 mm 3 mps 749 mmHg 97%
02:00 -2°C° 0 mm 4 mps 749 mmHg 97%
03:00 -2°C° 0 mm 4 mps 749 mmHg 97%
04:00 -2°C° 0 mm 4 mps 748 mmHg 97%
05:00 -2°C° 0 mm 4 mps 748 mmHg 97%
06:00 -2°C° 0 mm 4 mps 748 mmHg 97%
07:00 -1°C° 0 mm 3 mps 748 mmHg 96%
08:00 -1°C° 0 mm 3 mps 748 mmHg 96%
09:00 -2°C° 0 mm 4 mps 748 mmHg 96%
10:00 -2°C° 0 mm 4 mps 748 mmHg 97%
11:00 -2°C° 0 mm 4 mps 747 mmHg 95%
12:00 -2°C° 0 mm 4 mps 747 mmHg 94%
13:00 -2°C° 0 mm 5 mps 746 mmHg 92%
14:00 -2°C° 0 mm 5 mps 746 mmHg 92%
15:00 -2°C° 0 mm 5 mps 745 mmHg 91%
16:00 -4°C° 0 mm 6 mps 744 mmHg 91%
17:00 -3°C° 0.5 mm 6 mps 744 mmHg 92%
18:00 -3°C° 0.5 mm 6 mps 743 mmHg 94%
19:00 -3°C° 0.5 mm 7 mps 742 mmHg 96%
20:00 -3°C° 1 mm 7 mps 742 mmHg 96%
21:00 -2°C° 1 mm 6 mps 742 mmHg 97%
22:00 -1°C° 1 mm 6 mps 741 mmHg 98%
23:00 -1°C° 0.4 mm 6 mps 741 mmHg 98%

20 January, Wednesday

Time Temperature Precipitation Wind Pressure Humidity
00:00 -1°C° 0.4 mm 6 mps 741 mmHg 98%
01:00 -1°C° 0.4 mm 6 mps 741 mmHg 97%
02:00 0°C° 0 mm 5 mps 741 mmHg 97%
03:00 0°C° 0 mm 5 mps 741 mmHg 97%
04:00 0°C° 0 mm 5 mps 741 mmHg 97%
05:00 0°C° 0.1 mm 5 mps 741 mmHg 97%
06:00 0°C° 0.1 mm 5 mps 741 mmHg 97%
07:00 0°C° 0.1 mm 5 mps 740 mmHg 97%
08:00 0°C° 0 mm 5 mps 740 mmHg 96%
09:00 0°C° 0 mm 5 mps 740 mmHg 95%
10:00 0°C° 0 mm 5 mps 740 mmHg 94%
11:00 -1°C° 0 mm 6 mps 740 mmHg 93%
12:00 -1°C° 0 mm 6 mps 740 mmHg 93%
13:00 +1°C° 0 mm 6 mps 740 mmHg 92%
14:00 +1°C° 0 mm 6 mps 739 mmHg 92%
15:00 +1°C° 0 mm 5 mps 739 mmHg 92%
16:00 +1°C° 0 mm 5 mps 739 mmHg 92%
17:00 +1°C° 0 mm 5 mps 739 mmHg 92%
18:00 +1°C° 0 mm 5 mps 740 mmHg 92%
19:00 +1°C° 0 mm 5 mps 740 mmHg 93%
20:00 +1°C° 0 mm 5 mps 740 mmHg 92%
21:00 0°C° 0 mm 5 mps 740 mmHg 92%
22:00 0°C° 0 mm 5 mps 740 mmHg 92%
23:00 0°C° 0 mm 5 mps 739 mmHg 91%
Show more